DUCHIFAT-1

Last updated on Sun Jul 06 2025 00:03:05 GMT+0000 (Coordinated Universal Time)

1 40021U 14033M 25186.57134627 .00017823 00000+0 62588-3 0 9997 2 40021 98.0944 203.1832 0007723 213.6381 146.4367 15.29448417602290
UTC large
Height (km)
Speed (km/s)
/
Latitude / Longitude
Inclination (degrees)
Orbital Period (minutes)
Azimuth
Elevation
Range (km)
Doppler Factor

Next 0 passes for location: London (51.5072 / 0.1276)

Sorry there are no passes over London.